CAPE
301 254 111 85 36 0 7 42 58 44 20 36 205 635 720 633 422 285 21 0 0 0
318 244 169 101 38 44 51 95 183 135 169 176 586 778 407 114 8 0 0 0 0 0
194 227 235 121 51 12 175 310 489 608 556 664 592 283 6 0 0 0 0 0 0 0
232 205 108 101 65 22 131 144 180 457 466 339 237 2 0 0 0 0 0 0 0 0
61 68 80 117 78 95 121 127 203 393 171 92 9 0 0 0 0 0 0 0 0 0
52 55 95 117 163 138 226 313 291 124 78 5 0 0 0 0 0 0 0 0 0 0
65 85 206 167 89 161 212 215 140 79 7 0 0 0 0 0 0 0 0 0 0 0
87 208 183 91 155 257 435 267 17 12 0 0 0 0 0 0 0 0 0 0 0 0
117 142 322 113 246 407 349 276 38 52 0 0 0 0 0 0 0 0 0 0 0 0
221 211 221 125 414 580 504 119 23 1 0 0 0 0 0 0 0 0 0 0 0 0
184 164 50 249 410 579 314 167 47 2 0 0 0 0 0 0 0 0 0 0 0 0
115 135 83 86 446 613 332 68 1 0 0 0 0 0 0 0 0 0 0 0 0 0
39 78 90 239 498 492 145 34 0 0 0 0 0 0 0 0 0 0 0 0 0 0
81 64 83 187 587 457 114 5 0 0 0 0 0 0 0 0 0 0 0 0 0 0
CIN
-48 -60 -57 -45 -63 -0 -47 -51 -57 -78 -103 -107 -48 -27 -15 -20 -23 -45 -287 -0 -0 -55
-41 -53 -49 -38 -55 -49 -46 -55 -39 -52 -46 -58 -37 -22 -44 -94 -198 -0 -0 -0 -0 -0
-74 -51 -42 -34 -45 -90 -29 -33 -25 -19 -23 -26 -36 -69 -119 -0 -0 -0 -0 -0 -0 -0
-62 -49 -54 -51 -49 -67 -31 -39 -58 -25 -39 -54 -69 -41 -0 -0 -0 -0 -0 -0 -0 -0
-99 -73 -71 -60 -61 -50 -39 -60 -40 -53 -80 -84 -139 -16 -0 -0 -0 -0 -0 -0 -0 -0
-55 -72 -74 -58 -42 -46 -37 -43 -67 -75 -88 -112 -0 -0 -0 -0 -0 -0 -0 -0 -0 -0
-78 -74 -52 -49 -64 -51 -52 -48 -63 -97 -120 -0 -0 -0 -0 -0 -0 -0 -0 -0 -0 -0
-99 -69 -63 -83 -65 -50 -52 -62 -87 -131 -0 -0 -0 -0 -0 -0 -0 -0 -0 -0 -0 -0
-135 -119 -60 -96 -76 -57 -51 -52 -131 -230 -5 -0 -0 -0 -0 -0 -0 -0 -0 -0 -0 -0
-141 -132 -112 -116 -67 -45 -58 -113 -224 -274 -0 -0 -0 -0 -0 -0 -0 -0 -0 -0 -0 -0
-163 -153 -213 -128 -96 -74 -109 -140 -214 -119 -0 -0 -0 -0 -0 -0 -0 -0 -0 -0 -0 -0
-217 -199 -226 -224 -98 -76 -102 -144 -58 -0 -0 -0 -0 -0 -0 -0 -0 -0 -0 -0 -0 -0
-406 -327 -293 -175 -120 -86 -123 -203 -0 -0 -0 -0 -0 -0 -0 -0 -0 -0 -0 -0 -0 -0
-428 -372 -318 -219 -117 -106 -169 -391 -0 -0 -0 -0 -0 -0 -0 -0 -0 -0 -0 -0 -0 -0
Wind_Speed
6 19 25 28 24 24 24 23 23 25 26 25 23 23 20 20 18 18 16 16 16 16
13 21 28 25 23 22 23 24 25 25 25 24 23 21 12 19 17 18 18 17 16 14
14 21 29 25 30 28 24 22 21 23 22 22 19 10 13 16 16 14 15 15 13 13
17 22 27 28 26 29 24 21 24 24 22 20 18 9 13 15 14 13 13 13 13 14
16 19 26 27 22 17 21 21 20 13 17 15 13 14 15 13 13 11 11 11 13 14
5 13 12 13 9 9 12 12 8 7 12 15 19 17 17 12 11 10 10 12 14 15
4 4 5 3 3 5 8 4 6 8 9 21 20 19 15 10 9 9 10 13 19 18
21 12 4 6 4 7 9 8 10 3 22 18 19 21 14 9 7 8 9 11 14 18
23 28 19 8 4 7 18 22 8 27 20 21 23 24 13 6 7 7 11 14 15 18
29 28 25 28 29 28 28 29 29 23 23 25 25 29 6 10 7 9 15 19 19 18
28 31 33 32 30 30 29 28 27 26 27 29 28 27 21 8 8 15 20 20 18 19
33 33 31 31 31 31 30 29 28 28 30 31 29 23 14 7 12 20 20 20 18 18
30 31 31 33 31 31 31 30 29 30 30 30 28 25 15 11 15 20 20 19 18 17
32 29 27 26 29 32 32 31 31 31 31 31 27 21 21 19 20 17 16 16 16 16
Wind_Direction
256 266 255 249 258 258 256 262 257 250 241 242 248 248 266 243 224 224 206 234 218 198
267 260 249 253 257 261 256 250 252 241 245 248 249 260 308 246 261 245 247 250 211 161
266 257 244 252 244 245 253 258 252 245 252 255 266 315 288 266 270 294 283 278 2 30
258 249 241 239 247 239 253 259 245 249 255 261 265 304 280 275 287 296 308 319 23 28
256 250 239 237 248 261 255 258 256 276 261 262 275 276 274 280 282 317 338 3 29 48
243 253 248 251 263 275 273 269 269 272 269 267 250 256 248 275 298 320 351 23 65 84
210 183 219 206 269 288 279 271 274 278 283 237 243 239 247 282 315 337 8 55 134 117
137 133 229 127 107 283 273 262 273 324 228 248 238 225 249 285 341 13 5 17 64 104
139 152 138 122 96 282 248 231 266 204 237 230 219 209 249 317 25 14 50 62 58 69
158 157 150 161 183 176 194 200 202 227 224 212 210 183 100 79 30 58 85 97 87 72
156 168 178 185 188 197 202 209 217 217 211 199 200 159 137 76 64 101 115 114 99 104
172 178 173 184 184 201 205 211 215 209 194 186 187 152 126 86 100 127 132 131 121 116
169 172 177 197 186 205 211 211 209 199 188 182 174 163 138 121 123 135 141 146 138 128
176 173 172 171 179 202 210 209 200 194 196 192 177 159 155 148 144 136 131 129 128 132